Wind_Speed
26 24 23 23 23 23 23 23 24 24 24 24 24 24 23 23 22 21 20 19 19 19 19 18 17 18 18 18 18 17 16 16 16 15 15 15 15 14 14 14 15 15 15 15 15 14 14 13 13 13 13 15 16 16 15 15 14 14 13 12 12 9 9 9 7 7 8 9 8 5 6 6 7 8 9 11 10 10 10 11 11 12 12 11 11 10 11 10
27 25 24 23 23 23 23 23 23 23 23 23 23 23 23 22 22 21 20 20 20 19 19 18 18 19 19 19 18 17 17 16 16 16 15 15 15 14 14 15 15 15 15 15 15 15 14 13 13 13 12 14 15 16 16 15 15 14 12 12 11 9 11 11 9 10 11 8 7 6 6 7 8 8 9 10 10 10 11 11 12 13 14 12 11 12 12 12
28 26 24 23 23 23 23 23 23 23 23 23 23 23 22 22 21 21 20 20 20 20 19 19 19 19 19 19 18 17 17 16 16 16 16 15 14 14 14 14 15 15 15 15 15 15 14 14 13 13 12 13 15 16 16 15 15 15 14 11 10 12 15 14 12 12 10 8 8 7 6 8 8 8 9 9 10 11 11 11 12 13 14 14 14 14 14 13
28 26 25 24 23 23 23 23 23 23 23 23 23 23 23 22 22 21 20 20 20 20 20 20 19 20 20 19 19 18 17 16 16 16 16 15 14 15 14 14 15 15 15 15 15 15 14 14 13 13 12 13 14 15 16 16 16 17 16 13 14 16 16 14 13 12 10 9 9 7 8 9 8 8 8 10 11 10 9 10 13 12 13 16 17 16 15 14
28 27 26 25 24 23 23 24 24 24 24 24 24 23 23 23 22 22 21 21 21 21 21 21 20 21 20 20 19 18 17 14 15 17 16 16 15 15 15 15 15 15 15 15 15 15 14 14 14 13 13 13 13 14 16 16 16 16 17 18 18 17 16 14 13 12 11 10 9 9 9 9 9 9 8 11 11 9 9 12 14 14 14 15 15 15 13 13
29 28 27 26 25 24 24 25 25 25 25 25 25 24 24 23 23 22 21 21 21 21 21 21 21 21 21 21 20 19 18 13 15 18 17 16 15 15 15 15 15 15 15 15 15 15 14 14 14 14 14 14 13 14 15 15 16 14 15 19 18 17 16 14 13 12 11 10 10 10 10 9 9 10 10 10 9 11 15 16 16 16 16 14 13 13 12 12
29 29 28 27 26 26 25 25 25 25 26 26 25 25 24 24 23 22 22 21 21 22 22 22 22 22 22 22 21 20 20 16 14 18 18 16 16 15 15 15 15 15 15 15 15 15 14 14 15 15 14 14 14 15 14 14 16 14 16 18 17 16 15 14 13 12 12 11 10 9 9 10 11 11 10 8 7 12 17 16 16 16 16 15 13 14 14 14
29 29 28 27 27 26 25 25 25 25 25 25 25 25 25 24 23 22 22 22 22 22 22 22 22 23 23 22 21 20 21 18 14 16 18 17 16 16 16 16 16 16 15 15 15 15 14 15 15 14 14 15 15 15 15 14 15 17 19 17 16 16 15 14 13 12 12 11 10 10 11 12 12 13 9 7 10 15 16 15 15 15 15 15 14 14 15 16
27 28 28 28 27 26 25 25 25 24 24 25 25 25 25 24 24 23 23 22 22 22 22 23 23 24 23 22 22 20 21 20 15 14 17 17 16 16 16 16 16 15 15 15 15 15 15 15 15 15 15 16 15 15 15 14 14 19 20 17 16 16 15 14 13 12 12 11 11 10 12 13 12 13 9 8 14 16 14 14 14 14 15 15 15 16 16 17
24 25 26 27 26 26 25 25 24 24 24 24 24 24 24 24 24 24 23 23 23 23 23 23 23 24 24 23 22 20 20 21 17 14 15 17 17 16 16 16 16 15 15 15 15 15 15 15 15 15 15 14 14 14 15 15 15 18 18 17 16 15 14 14 13 13 12 11 11 11 13 12 12 15 10 10 15 15 13 13 12 12 13 14 15 16 17 18
23 23 24 25 25 25 25 24 24 24 23 24 24 24 24 24 25 24 24 24 24 24 24 24 25 24 24 24 21 20 20 20 19 15 14 16 17 16 16 16 16 16 15 15 16 15 15 15 15 14 13 13 13 13 14 16 17 16 16 16 16 14 14 14 13 12 12 11 10 11 13 12 13 13 9 11 15 14 13 12 12 13 13 15 16 17 17 18
22 22 23 23 23 23 24 24 24 23 23 23 23 23 23 24 24 25 24 24 25 25 25 25 25 25 25 24 23 22 21 20 20 18 15 15 16 16 16 16 16 16 16 16 16 16 16 15 15 14 13 12 12 12 13 16 16 15 14 13 13 13 13 14 13 11 11 11 10 10 12 13 13 10 7 12 14 13 14 13 13 13 13 15 16 17 17 17
23 22 21 22 22 22 23 23 22 23 23 23 23 23 23 24 24 24 24 25 25 25 26 26 26 26 25 24 25 25 21 20 20 19 17 16 15 16 16 16 16 16 16 16 16 16 17 16 15 15 14 13 12 12 11 14 15 13 13 11 10 11 13 14 12 11 11 10 9 10 11 10 9 9 9 12 14 14 14 13 13 14 14 16 17 17 17 18
23 23 22 21 21 21 21 21 21 21 22 22 22 22 23 23 24 24 24 24 25 25 26 26 26 26 25 25 26 25 22 21 21 19 18 17 17 16 16 16 15 15 16 16 16 16 16 16 15 15 14 13 13 12 10 11 13 12 12 11 10 9 12 15 12 11 12 10 10 11 14 12 9 12 13 13 15 15 15 14 15 16 17 18 18 18 18 18
25 24 24 23 22 21 21 20 21 21 21 21 22 22 22 23 23 23 23 24 24 25 26 26 26 26 26 26 25 25 24 22 21 20 19 18 18 17 16 16 15 15 15 15 16 16 16 16 15 15 15 14 13 12 11 10 12 13 11 9 12 12 11 15 14 12 12 11 12 12 14 11 10 15 15 14 16 16 17 17 18 20 20 20 19 19 20 20
26 25 25 24 23 23 22 21 21 20 20 21 21 21 22 22 22 23 23 24 24 24 25 25 26 26 24 25 25 25 25 23 21 20 19 18 18 18 17 16 16 15 15 15 15 15 15 15 15 14 14 14 13 11 9 9 11 14 13 8 11 14 10 13 14 13 14 13 13 15 15 11 10 15 15 14 16 17 19 19 20 22 22 22 21 21 20 20
27 26 25 25 24 24 23 23 22 21 21 21 21 21 21 21 22 23 23 23 23 24 25 24 25 25 23 24 26 26 25 23 22 20 19 19 18 18 17 17 16 15 15 15 15 15 15 14 14 13 14 15 14 12 10 11 11 13 15 12 11 13 11 9 12 13 14 14 15 17 21 19 15 16 17 16 17 19 21 21 21 23 23 23 22 21 21 20
26 26 26 25 25 25 24 24 24 23 22 22 21 21 21 21 21 22 23 24 24 24 24 24 25 24 23 25 25 24 25 23 22 21 20 19 19 18 17 17 16 15 15 15 15 15 15 15 13 12 14 16 17 16 13 11 10 10 15 15 12 14 13 11 12 14 14 14 16 17 22 22 17 17 18 17 19 21 22 22 22 23 23 22 21 21 20 20
25 25 25 25 25 25 25 25 25 24 24 23 23 22 21 21 22 22 23 24 25 25 24 26 29 25 21 23 24 22 23 24 23 23 21 20 19 18 18 17 16 16 15 14 15 15 15 15 16 15 16 18 19 18 14 12 10 10 13 14 11 10 12 14 16 15 14 15 17 19 22 22 19 18 18 17 20 23 23 21 22 22 21 21 21 21 20 20
23 24 24 24 24 25 25 25 25 25 25 24 24 23 23 23 23 24 25 25 26 28 28 27 30 29 22 19 20 22 23 24 25 24 22 21 19 19 19 18 17 17 15 14 15 16 15 15 17 17 16 15 17 16 16 17 16 13 12 11 12 11 10 13 15 14 13 16 18 19 22 23 22 20 18 17 20 24 25 23 22 21 20 20 21 21 21 20
21 21 22 22 23 24 24 25 25 25 25 25 25 24 25 25 24 24 25 25 26 27 28 26 27 30 28 20 18 21 23 24 25 24 24 23 21 20 20 19 18 18 18 17 16 16 16 17 15 15 16 16 16 15 16 18 18 16 13 11 12 13 12 14 14 12 13 16 18 20 23 25 25 23 20 19 21 24 25 24 24 23 22 22 22 21 21 21
23 20 20 21 21 23 24 24 25 25 26 26 26 25 25 24 23 23 22 24 26 26 26 27 26 28 29 25 20 20 21 23 25 25 25 24 23 22 22 21 19 18 19 19 18 16 17 18 16 17 20 19 16 15 16 17 18 17 15 12 12 12 13 13 13 13 14 15 18 21 25 27 26 26 24 22 23 24 24 25 26 26 25 24 22 21 21 21
31 26 21 20 20 21 23 24 25 25 26 26 26 25 24 24 23 22 21 22 24 26 27 27 28 27 27 28 26 22 21 23 24 25 26 25 25 24 24 23 21 20 22 20 19 18 15 16 19 20 20 17 16 16 17 18 18 18 16 13 12 12 12 10 10 13 14 15 18 22 27 30 29 28 27 25 25 25 24 26 27 27 27 24 22 21 21 21
36 34 29 24 21 21 22 23 24 25 25 25 25 24 24 24 23 23 22 21 23 26 28 28 28 29 27 27 27 26 25 24 24 25 25 25 26 26 25 24 22 23 24 22 20 18 15 16 20 20 18 17 17 17 18 18 17 17 19 17 12 10 11 11 11 14 16 17 21 23 26 29 30 30 30 28 27 26 25 26 26 26 26 24 22 22 22 22
35 36 35 31 27 24 23 23 24 24 24 24 24 24 24 23 22 22 21 18 20 25 27 29 30 29 29 27 27 28 27 27 26 25 25 26 26 26 26 26 25 24 24 23 22 19 19 21 22 19 18 17 17 18 19 18 16 14 17 18 14 12 13 13 13 14 15 15 19 18 13 16 25 30 31 30 29 27 26 25 25 24 23 23 23 23 23 23
32 34 36 35 33 30 27 26 25 24 24 24 23 23 23 22 21 20 18 14 16 24 27 29 30 29 31 31 30 28 26 27 29 26 26 27 26 26 27 28 26 23 21 23 24 23 24 26 25 23 20 17 16 18 20 20 15 12 14 15 14 15 15 13 13 13 10 9 15 16 10 13 27 35 32 30 31 30 28 26 25 23 22 22 23 23 23 24
28 30 34 36 35 33 32 31 27 26 26 25 24 24 22 22 20 19 17 10 13 24 29 29 29 29 32 34 32 28 24 26 29 29 28 27 26 27 25 25 28 25 24 24 23 25 28 28 25 25 25 23 21 17 18 19 16 14 15 15 14 14 13 13 13 12 13 15 20 24 19 16 26 36 33 31 34 32 29 27 25 22 21 22 24 24 23 23
28 28 32 35 35 33 33 33 31 30 29 26 25 24 23 21 19 19 16 7 7 17 27 31 31 29 31 32 32 31 29 27 26 29 30 27 26 27 24 25 27 26 25 25 22 23 26 26 25 26 26 26 26 22 17 15 16 17 16 15 15 13 14 14 13 13 16 19 18 20 18 11 18 32 35 34 36 33 29 27 25 24 23 24 24 23 22 21
32 31 31 32 34 35 34 33 33 31 30 29 27 24 24 21 20 19 12 6 9 14 21 29 33 32 31 30 32 34 35 31 27 26 28 29 28 27 26 27 26 25 25 25 24 22 22 23 23 24 26 27 26 24 20 17 17 18 17 16 15 14 15 13 13 15 14 15 15 15 13 10 15 26 32 35 37 34 29 25 23 22 20 19 19 19 19 20
33 34 33 32 33 36 36 33 32 31 30 29 28 26 25 22 23 20 8 9 16 16 18 23 30 36 35 31 31 33 35 34 31 26 24 28 29 27 27 26 26 27 26 25 27 27 24 22 22 22 23 25 25 22 21 21 20 20 18 16 14 14 14 12 14 14 9 10 10 9 9 10 11 12 17 26 31 29 23 18 16 15 14 15 17 19 20 19
31 34 35 35 34 35 36 34 31 31 29 28 27 27 26 25 25 18 8 17 21 17 20 23 26 33 35 35 34 33 35 35 33 30 26 27 28 29 29 26 25 24 24 26 28 29 28 24 25 26 24 23 22 22 22 22 23 22 18 11 8 9 9 10 11 9 7 6 6 7 5 9 13 9 8 12 14 18 20 15 14 17 21 24 25 22 18 15
30 31 33 36 37 36 35 33 31 31 31 32 28 26 29 26 22 19 18 24 17 11 22 26 24 28 30 34 35 34 34 34 33 33 31 29 28 30 31 30 29 22 20 27 29 28 29 29 29 27 27 27 23 21 22 23 23 21 15 9 6 6 5 6 6 5 8 8 6 7 4 11 31 32 21 18 15 20 28 26 24 27 28 29 26 18 16 16
30 31 31 33 37 39 39 35 33 31 33 34 30 31 32 20 18 30 33 27 12 5 18 26 26 25 24 28 34 35 35 33 33 33 34 33 30 30 31 32 34 29 21 22 25 24 22 26 33 33 31 31 27 25 24 22 22 21 19 16 12 8 4 6 7 5 7 8 10 11 7 15 36 39 31 27 24 25 29 23 17 15 14 17 18 18 18 24
30 31 32 32 33 37 41 41 40 38 35 33 30 34 34 19 22 38 36 27 18 10 12 20 25 25 23 26 30 31 33 33 34 33 34 36 34 33 34 33 35 35 28 17 17 23 18 17 28 34 35 34 32 31 28 25 23 23 23 21 19 16 10 7 5 4 5 4 6 9 8 14 21 20 20 19 16 13 10 11 10 9 14 18 19 21 24 25
29 31 32 33 33 33 36 38 41 44 42 37 31 32 35 29 33 40 33 27 28 22 14 14 21 25 25 27 28 28 30 32 34 35 35 36 37 37 38 38 36 36 34 23 18 22 21 20 25 26 28 32 33 32 31 28 24 25 25 23 22 25 21 13 8 9 7 4 5 10 14 27 30 29 30 26 24 23 17 18 21 23 25 24 24 25 23 19
29 31 31 33 34 33 34 34 34 39 42 42 37 32 35 37 38 39 36 31 30 29 19 13 18 24 26 29 30 29 30 31 32 34 35 36 38 39 39 40 40 38 38 35 27 22 18 19 26 27 24 27 28 28 31 31 23 23 27 30 32 31 25 15 10 14 11 6 13 16 23 42 43 41 45 39 36 36 30 27 24 20 20 21 24 23 20 20
30 31 32 33 33 33 35 35 33 34 35 36 37 37 39 41 39 37 39 37 34 33 26 18 20 24 25 29 32 32 31 32 31 31 33 34 34 38 40 39 40 40 40 39 34 27 21 17 21 26 27 29 29 26 29 34 29 25 27 31 35 30 25 19 8 8 8 7 14 18 25 36 31 30 38 32 25 24 19 18 20 24 26 22 19 18 18 19
31 32 33 33 32 32 33 34 35 35 33 29 31 35 37 39 39 36 36 38 37 37 34 27 22 23 24 26 29 33 33 31 31 30 30 30 30 34 38 39 39 38 37 38 34 28 26 21 17 20 23 25 27 27 28 33 35 34 31 28 25 18 17 20 12 7 8 6 9 16 23 28 31 40 44 35 29 28 27 29 33 31 23 14 12 14 15 17
32 32 33 33 32 32 31 32 35 37 34 31 31 34 35 36 37 36 34 33 35 38 36 30 23 23 25 23 24 32 35 32 34 35 29 28 30 33 36 37 37 36 36 38 39 35 31 24 17 18 21 20 23 29 33 35 37 39 35 28 24 19 14 17 18 14 11 7 7 12 16 22 38 50 46 40 38 33 29 29 24 16 11 12 15 15 16 17
34 34 34 33 32 32 31 31 33 35 35 36 37 36 35 35 37 37 35 32 33 34 33 32 30 27 27 25 22 28 34 33 34 36 33 29 30 33 35 35 34 35 35 36 39 40 35 28 21 17 18 22 26 31 36 37 37 38 37 32 30 30 22 16 18 21 16 8 7 9 10 21 37 37 29 30 30 24 24 25 20 18 21 23 20 18 19 20
35 36 36 33 32 32 32 32 33 35 37 40 41 38 34 34 34 34 33 31 31 31 30 31 34 35 33 31 27 27 31 34 35 34 33 34 34 31 30 33 35 35 33 31 36 38 35 32 27 21 21 26 31 33 33 34 35 35 37 37 37 40 34 20 13 21 24 15 11 8 7 26 44 39 34 37 32 29 34 36 35 32 27 21 20 23 26 28
34 37 36 34 33 32 31 33 34 35 38 40 41 39 35 34 34 33 32 30 29 30 29 28 30 34 35 35 34 31 29 32 35 35 35 38 38 34 28 27 29 31 31 28 30 33 34 33 27 25 29 32 33 34 32 32 35 34 35 38 39 40 40 29 12 13 21 22 24 18 11 33 57 52 47 48 43 42 45 43 37 30 23 23 27 31 30 27
34 35 34 33 34 32 30 32 34 36 39 40 40 37 35 35 35 33 33 32 30 29 31 30 29 29 30 31 33 34 31 31 33 34 37 39 39 39 34 28 23 24 27 27 27 28 30 30 25 22 24 25 28 33 33 31 33 35 37 39 39 37 35 30 20 13 13 16 23 18 10 33 58 54 49 52 49 47 47 42 36 31 31 32 31 30 27 27
33 34 34 33 32 31 31 34 36 38 40 40 38 35 34 34 33 30 32 35 34 31 31 32 30 29 28 27 28 30 30 30 31 33 36 37 37 37 37 34 28 23 23 23 24 26 26 28 26 18 12 12 16 22 28 32 34 36 38 37 39 40 32 26 27 25 19 20 25 18 12 32 54 52 50 51 46 43 42 40 39 37 36 34 30 30 33 35
35 34 35 34 32 31 32 36 38 38 40 39 37 38 37 35 34 32 31 32 33 32 31 30 29 28 27 26 27 28 28 28 29 30 32 34 36 36 37 37 34 31 28 22 19 19 20 24 26 20 13 11 11 9 14 27 34 37 39 37 39 42 37 31 29 24 21 29 36 28 20 35 52 52 51 51 47 45 44 39 39 40 40 41 40 38 37 34
36 34 34 34 34 34 34 36 37 38 40 38 36 40 40 36 35 36 33 30 30 31 31 29 29 28 26 26 27 27 28 30 29 29 31 32 33 34 36 36 36 35 33 29 25 22 19 20 24 26 25 23 20 10 4 12 22 28 35 39 41 41 41 38 30 25 27 32 37 39 36 43 55 55 52 54 52 50 47 43 44 48 47 46 44 36 29 26
36 36 37 35 33 35 37 38 37 38 40 38 37 41 42 38 35 34 34 32 30 30 32 31 30 30 29 28 28 26 25 27 28 30 34 34 32 32 32 32 33 34 33 32 32 31 28 28 30 32 34 35 33 23 12 10 12 15 21 28 34 37 40 41 37 38 41 32 29 44 48 45 53 58 54 54 53 52 52 52 53 54 49 47 46 38 30 26
38 39 39 36 33 35 39 41 39 39 39 37 36 39 42 41 36 33 34 35 33 31 31 32 32 33 32 31 30 27 24 24 26 30 33 32 30 30 32 32 30 30 30 29 31 30 29 32 36 37 38 42 43 40 34 29 25 23 22 23 27 31 34 38 40 44 46 39 38 49 50 45 51 57 56 54 53 52 51 50 49 47 45 48 48 43 37 34
40 39 38 38 37 36 37 38 40 41 41 38 34 35 39 41 41 39 36 35 35 34 33 33 34 35 34 33 33 31 28 27 28 30 32 32 30 29 33 34 32 31 29 27 29 27 25 30 35 34 35 40 42 42 42 41 40 40 36 30 28 29 31 35 38 41 44 45 46 48 49 50 52 54 55 53 51 51 51 48 48 48 49 51 50 47 45 42
42 42 41 40 41 41 38 37 39 42 42 40 37 38 41 41 41 41 37 33 33 35 36 37 37 34 32 33 35 35 34 32 31 31 31 31 32 33 35 35 33 32 31 31 31 29 29 32 32 27 28 35 39 40 40 40 40 42 41 36 31 31 34 39 43 44 43 44 45 45 48 55 54 51 52 51 50 54 54 52 53 54 54 53 52 52 50 46
41 42 42 40 41 44 43 41 39 38 39 40 40 41 43 42 42 38 34 33 33 33 35 38 38 34 31 31 33 35 35 33 32 31 30 30 32 33 34 34 32 30 30 32 32 30 31 33 31 24 23 31 38 38 38 40 38 37 38 38 38 40 44 47 48 48 46 46 48 47 50 56 55 49 50 51 52 55 54 53 55 54 52 50 50 51 49 45
40 40 42 41 41 43 44 43 39 34 36 40 40 41 41 41 41 35 27 28 33 33 32 34 35 33 31 32 33 32 32 33 33 34 34 33 33 33 34 34 31 29 29 30 30 31 31 33 34 27 22 30 39 38 38 37 28 28 38 43 45 48 49 48 48 49 50 50 51 50 52 55 52 49 53 54 53 54 54 52 51 49 48 46 44 45 44 40
Wind_Direction
197 198 198 196 194 191 190 188 185 184 183 183 183 182 182 181 180 178 177 175 175 177 177 177 178 178 176 175 175 175 175 176 178 179 180 181 181 182 184 185 186 186 188 189 190 191 194 195 194 193 193 193 194 197 201 204 207 211 215 221 230 236 239 236 231 229 224 236 254 244 235 241 242 234 223 229 232 232 230 225 222 220 221 218 219 222 214 210
198 199 200 199 198 196 194 192 190 189 188 188 187 187 186 184 182 180 178 177 177 178 178 179 179 179 178 177 178 178 180 181 183 184 184 185 184 185 186 186 187 187 189 191 191 192 193 194 193 192 192 194 196 197 201 204 207 208 209 219 230 232 230 231 230 230 228 238 251 241 237 240 242 238 228 228 229 233 233 231 227 223 224 224 224 225 221 219
199 199 201 202 202 200 198 197 194 193 194 193 192 191 189 187 185 183 181 179 179 179 179 180 181 181 180 180 181 181 183 186 189 190 189 188 188 189 188 189 189 190 191 193 194 194 195 195 193 192 193 197 198 199 204 207 209 212 211 219 236 237 238 240 239 238 238 240 243 241 237 236 240 240 235 232 229 233 233 231 231 229 232 231 227 227 227 228
201 200 202 204 204 203 202 201 199 198 197 197 196 194 193 191 188 185 183 182 181 181 181 181 183 182 182 183 184 185 186 191 195 193 193 192 191 192 192 192 191 192 194 195 196 196 197 197 196 195 194 199 200 200 207 210 213 217 217 218 229 238 245 245 240 242 243 241 242 240 240 239 240 239 237 237 234 239 245 242 236 231 235 238 233 232 232 234
201 201 204 205 205 205 204 204 203 201 200 200 198 197 195 193 191 188 186 185 184 184 182 183 184 184 185 186 187 188 188 196 203 198 196 195 194 195 195 195 194 194 196 197 198 198 199 199 200 199 199 204 200 202 209 211 216 222 226 226 227 236 244 243 240 243 241 240 241 237 241 240 237 240 240 240 235 229 235 239 236 227 232 242 240 239 239 238
202 202 205 207 207 207 207 206 205 203 202 201 200 199 198 196 193 191 189 188 186 186 185 185 185 186 187 188 190 190 186 195 206 200 199 198 198 199 197 197 197 197 198 198 199 199 200 201 203 203 204 208 203 208 212 212 217 223 234 236 235 240 244 243 241 240 240 239 237 234 242 241 238 245 244 243 236 223 226 232 235 232 236 245 242 240 238 233
205 205 206 208 210 209 209 208 208 206 204 203 202 201 200 198 196 195 193 191 189 188 188 187 187 188 189 191 193 192 192 197 203 201 201 200 201 202 199 199 198 199 199 199 200 200 202 203 206 206 207 211 211 213 214 216 218 221 235 237 236 242 242 242 241 239 239 237 236 236 241 243 241 246 246 239 223 225 231 232 235 234 236 240 234 233 234 233
207 208 208 209 211 211 211 210 210 209 207 205 204 203 203 201 199 199 197 194 192 191 191 190 189 189 191 194 195 196 199 203 205 203 203 203 204 204 202 201 199 199 200 200 202 202 204 206 208 208 209 215 215 216 217 222 225 225 236 240 238 241 240 239 237 235 236 234 235 235 237 243 243 248 247 218 210 224 232 232 233 232 233 238 235 233 236 238
207 209 209 210 211 211 211 211 211 211 210 208 207 206 205 203 202 202 200 198 195 194 194 192 191 192 192 195 197 200 205 206 209 209 207 206 206 207 205 203 201 201 201 201 203 204 205 206 207 207 211 217 217 220 220 219 227 231 236 241 239 238 237 236 234 233 234 232 233 234 239 244 246 252 245 205 215 228 236 237 236 235 236 238 239 238 239 241
205 208 209 210 210 210 210 211 211 212 212 211 210 208 206 205 204 203 203 201 198 196 196 194 194 194 195 197 197 203 209 207 210 212 210 210 208 209 206 204 202 202 203 203 204 206 206 205 207 208 213 218 217 222 222 216 223 231 233 235 235 235 235 234 233 233 231 232 235 237 245 249 250 255 245 214 227 236 240 243 242 240 240 240 242 242 242 244
203 206 208 210 210 209 209 209 210 211 212 212 212 211 209 207 205 204 203 202 200 198 197 196 196 195 197 198 197 206 211 206 209 210 208 210 210 209 207 205 203 202 204 204 204 205 205 205 204 205 209 216 217 221 225 222 226 231 229 230 233 233 234 234 233 233 232 234 239 243 251 254 251 255 250 229 234 238 238 240 241 241 243 246 247 248 247 248
201 203 206 208 210 210 210 209 209 209 210 212 212 212 211 209 207 206 204 203 202 201 199 197 197 197 198 199 199 206 209 206 208 209 209 210 208 209 207 205 203 203 205 204 204 203 202 203 201 200 203 209 213 218 225 226 227 229 224 225 233 234 236 237 235 234 234 236 240 250 260 262 257 253 244 238 234 233 236 237 242 245 247 250 251 252 252 250
202 202 203 205 207 209 209 210 209 209 209 210 211 211 211 211 209 207 205 204 202 201 201 199 199 198 198 203 205 206 207 207 208 209 211 212 208 208 207 205 203 204 206 205 204 202 200 200 200 202 203 206 210 213 222 224 222 224 221 218 229 238 242 242 238 236 237 238 237 248 259 266 273 260 242 245 245 243 247 248 250 251 249 250 253 255 256 255
207 205 204 204 205 206 208 209 209 209 209 208 209 210 210 210 210 209 207 205 203 202 201 200 200 199 200 206 207 207 208 207 209 209 211 212 210 207 205 204 203 204 206 205 203 202 200 198 200 202 204 207 210 213 222 223 216 217 221 220 219 228 246 248 243 239 239 238 235 244 252 253 263 262 249 246 251 255 257 255 254 256 256 256 256 258 259 259
210 210 208 206 206 206 207 208 209 209 209 208 208 208 209 210 210 210 209 207 205 203 202 201 201 201 206 211 208 207 209 208 209 209 210 212 211 209 207 204 203 205 205 203 202 202 201 200 201 203 206 207 209 213 219 222 218 217 219 223 221 218 242 254 246 239 241 242 238 241 253 256 254 255 253 251 253 256 257 257 259 261 262 262 261 260 261 261
210 211 213 211 210 209 209 208 209 209 209 209 208 207 208 208 209 209 209 209 207 205 203 203 204 203 210 215 211 209 209 209 209 209 211 212 211 211 209 206 206 207 207 205 203 202 202 203 204 207 209 208 207 205 207 217 223 223 220 220 227 222 233 256 250 242 244 246 244 242 247 251 249 250 254 258 259 259 258 257 259 260 262 263 264 265 264 264
210 210 212 213 213 211 211 210 210 209 209 209 208 208 207 207 208 207 208 208 207 207 205 206 207 207 213 216 213 211 210 209 210 210 211 211 212 212 211 210 208 209 210 209 205 203 204 204 205 210 213 210 205 196 199 213 217 223 223 223 232 225 218 243 255 248 245 248 249 250 252 251 250 256 259 259 259 259 258 258 258 259 262 265 267 269 269 268
210 210 211 211 212 212 211 210 210 210 209 208 208 207 207 207 207 206 207 206 206 206 207 209 208 207 217 219 213 212 211 210 211 211 211 212 212 212 212 211 208 208 211 211 211 207 206 205 202 208 215 213 208 201 203 216 216 220 225 224 235 236 226 229 244 249 248 251 252 254 260 260 255 256 259 261 262 261 258 258 260 261 263 268 271 272 272 270
208 210 210 211 211 211 211 210 209 209 209 208 206 206 206 206 206 206 206 205 206 205 206 211 208 205 216 222 216 213 211 211 212 212 212 213 212 212 212 211 208 208 209 212 215 211 208 209 207 210 215 217 217 209 210 226 223 219 224 224 232 240 238 235 239 249 252 254 256 255 262 267 262 255 253 255 261 264 264 261 262 265 268 272 273 273 271 269
207 207 209 210 210 211 212 211 209 208 207 207 205 204 205 204 205 207 207 206 206 206 207 211 210 207 212 218 214 213 212 212 213 213 214 213 212 212 212 211 210 209 208 210 215 213 212 215 216 218 219 223 225 216 217 228 228 230 232 228 232 233 239 246 245 248 252 256 261 262 264 267 266 261 256 253 255 260 265 267 269 272 273 271 270 271 272 272
207 207 207 208 209 210 210 211 210 207 205 205 204 204 205 205 206 209 210 210 210 211 213 214 212 213 215 214 211 213 214 214 215 214 215 214 212 213 214 212 213 213 212 213 217 217 217 219 219 222 223 221 225 224 225 230 234 240 240 238 244 242 243 252 252 250 254 259 263 266 268 266 267 267 262 258 256 258 265 271 275 275 274 272 272 273 274 274
208 209 208 207 208 208 208 208 208 207 205 204 203 205 207 207 208 211 212 214 216 215 217 218 215 216 217 216 214 212 214 216 217 216 216 215 214 215 216 213 213 217 218 218 220 221 224 225 222 224 226 224 228 232 231 232 236 237 236 241 247 247 249 257 264 260 256 262 267 270 270 266 267 268 266 263 261 262 267 271 274 277 276 275 277 277 274 269
208 211 212 211 209 208 208 208 206 206 206 205 205 204 206 207 209 212 212 216 219 217 218 219 218 218 219 219 218 216 217 219 219 219 217 217 216 217 218 215 215 221 221 219 220 222 226 228 226 227 230 233 235 232 229 233 238 237 234 236 242 250 254 263 275 266 260 265 268 274 277 270 266 267 267 266 265 264 268 271 273 275 276 276 276 274 269 266
210 212 214 215 215 212 209 209 208 207 206 206 207 205 206 208 209 212 213 216 221 220 219 220 220 220 219 220 221 220 223 223 221 221 219 218 219 220 222 220 219 225 226 224 223 223 228 231 230 232 235 237 234 231 233 236 240 244 242 237 241 256 256 254 264 269 274 274 271 279 286 277 272 272 269 267 267 266 266 269 271 271 273 274 272 268 266 268
211 212 213 215 218 217 214 211 210 209 208 208 207 207 208 209 210 212 212 219 228 225 221 220 221 222 221 221 222 222 224 225 224 223 220 220 221 220 223 222 221 226 230 230 228 227 233 234 231 234 239 237 234 234 236 235 238 249 253 245 240 248 255 255 261 276 289 284 277 285 293 280 275 273 269 270 271 270 269 268 268 270 271 271 271 269 268 266
211 212 212 213 215 217 218 215 213 212 211 211 210 210 210 210 211 212 210 221 238 230 222 220 220 220 219 219 221 221 224 226 225 223 223 222 221 221 223 224 224 224 227 229 230 231 233 234 233 235 239 238 236 238 236 233 234 241 250 249 241 244 254 261 270 280 286 277 275 281 282 281 278 270 266 272 274 274 276 274 269 270 272 270 268 268 266 264
208 210 212 211 211 213 215 215 216 216 215 213 212 212 213 212 212 211 210 226 247 233 225 221 219 219 218 219 219 217 220 225 222 221 223 221 221 222 223 227 227 224 226 229 232 236 236 235 236 237 239 240 238 236 236 234 231 236 244 245 242 245 254 265 276 279 279 279 280 280 277 274 274 269 266 270 275 275 276 275 273 273 271 267 265 265 265 264
206 207 210 212 212 212 212 212 214 216 218 216 214 214 213 213 213 209 209 223 232 225 225 222 219 220 220 219 217 215 218 223 218 219 222 220 222 223 220 225 229 229 231 231 233 241 243 239 238 239 240 243 241 236 233 229 226 232 237 239 240 248 261 271 278 281 287 292 284 275 273 263 264 270 271 272 273 274 274 275 278 278 272 265 263 264 262 262
213 208 209 211 211 212 213 211 211 213 216 217 216 216 212 209 210 203 201 224 217 216 223 220 218 220 220 218 217 217 220 222 219 218 219 219 222 222 220 224 228 230 231 231 233 241 245 241 239 240 240 243 244 240 234 229 229 231 232 240 247 256 267 275 280 281 289 290 270 257 260 264 272 275 273 273 274 275 276 279 280 277 269 262 259 259 260 262
225 220 216 212 209 211 213 212 211 212 214 214 212 212 209 204 200 194 187 215 215 217 218 214 215 217 217 216 215 217 220 223 222 220 217 217 219 221 222 225 226 229 230 229 232 236 240 240 237 237 238 241 244 241 235 231 234 238 239 243 253 264 273 277 276 279 286 278 252 228 240 262 280 277 258 264 274 276 278 283 279 265 255 261 268 267 264 262
227 226 226 220 213 211 211 210 210 210 213 212 208 205 201 196 195 191 200 215 215 220 215 211 215 216 217 217 217 217 219 222 223 222 220 219 219 219 219 220 220 224 230 231 233 236 237 237 237 236 237 239 240 236 232 230 233 237 234 232 249 268 274 270 265 260 259 255 185 169 218 251 257 251 210 235 263 271 274 276 265 261 266 274 279 272 258 258
222 223 226 225 221 217 212 208 207 210 212 211 208 203 196 190 192 199 212 217 219 223 214 214 217 216 217 218 220 222 221 222 223 223 226 224 222 223 222 222 220 217 226 232 234 239 239 237 237 238 237 236 234 230 226 226 228 227 217 198 213 243 239 233 231 217 236 240 204 208 232 249 256 260 254 246 250 263 273 275 270 273 277 276 273 254 239 270
220 222 224 225 224 222 218 212 209 210 213 214 211 201 193 186 197 207 211 215 218 208 210 218 221 217 215 213 217 222 222 223 223 221 225 226 226 229 228 228 227 224 229 232 228 232 240 241 237 235 234 232 229 226 224 224 223 221 214 201 200 216 227 228 223 221 237 240 241 243 243 258 265 270 269 265 267 270 272 270 265 271 283 277 258 234 248 282
218 220 222 224 225 224 222 220 218 217 216 218 215 198 190 195 212 212 212 215 221 220 207 215 217 213 211 211 216 221 220 223 225 222 224 225 224 227 227 227 227 228 231 228 220 224 229 239 239 236 236 235 233 232 233 236 236 235 229 216 213 220 227 239 237 236 249 256 246 229 226 250 261 272 275 275 283 273 232 199 203 248 287 285 260 248 265 279
218 218 220 222 223 222 223 223 223 223 220 221 218 195 188 201 212 212 212 212 219 225 211 200 210 209 207 210 217 220 218 220 224 222 224 226 226 229 230 229 228 227 227 225 224 228 230 241 247 245 242 242 242 239 237 236 239 242 232 217 222 229 231 249 272 265 275 317 252 222 240 256 258 264 268 270 274 269 252 250 260 273 282 273 257 258 268 270
220 219 219 220 220 219 221 222 223 224 223 223 221 207 202 210 213 212 211 210 216 221 209 185 198 204 204 209 213 215 216 218 220 219 221 226 229 232 233 234 234 231 229 227 226 225 227 240 248 246 244 243 241 237 233 228 228 234 226 220 228 231 228 238 266 261 261 284 260 244 256 266 269 272 272 271 273 273 273 273 274 284 286 267 255 260 266 269
222 221 220 221 220 217 219 222 223 224 222 220 220 220 223 226 225 221 217 216 217 219 215 203 202 203 203 208 213 214 213 216 219 218 219 224 229 232 233 235 237 236 235 234 231 230 232 242 249 244 241 241 239 234 231 230 229 227 223 226 233 235 229 228 244 256 237 248 259 248 254 266 272 273 273 276 279 278 275 269 276 292 296 284 268 264 262 257
224 224 224 223 221 219 217 219 222 226 226 220 219 224 229 232 234 233 228 224 223 224 221 216 215 211 207 209 213 214 212 212 217 217 217 223 229 233 233 234 236 236 237 235 233 234 237 241 249 244 239 240 239 231 227 229 229 227 226 226 226 226 223 218 218 238 235 233 258 252 253 259 259 260 266 272 275 278 279 280 289 297 298 292 278 264 245 234
226 226 226 224 223 221 218 217 219 224 228 228 225 228 231 233 235 237 234 230 229 228 222 215 217 215 211 211 213 214 212 211 216 217 216 221 230 236 236 236 237 237 237 234 232 234 236 237 243 243 238 233 227 222 221 223 222 222 226 227 224 224 218 213 213 221 234 237 249 259 255 254 259 263 267 271 274 279 283 288 297 298 288 297 290 260 232 240
227 228 229 226 223 221 218 218 218 220 225 227 227 228 231 233 235 236 236 235 234 233 227 219 218 214 209 209 209 214 214 213 217 220 219 221 229 237 239 238 238 239 239 236 233 233 233 234 238 238 229 219 218 224 227 227 225 222 223 225 226 226 222 225 227 221 226 240 245 254 259 256 261 265 266 269 276 279 281 286 289 286 290 296 284 251 245 273
227 228 230 227 225 223 217 216 217 217 222 226 227 229 233 234 235 234 234 234 233 236 237 230 225 223 219 214 212 215 214 213 215 217 219 223 229 236 240 240 239 239 239 235 233 233 231 231 234 233 228 224 228 237 238 234 234 233 232 233 235 232 225 224 233 223 222 230 240 246 277 266 262 263 264 268 273 274 278 286 290 293 295 285 265 261 276 292
226 227 229 227 225 224 219 217 218 219 222 225 226 228 232 236 238 235 233 233 229 231 235 233 229 228 227 223 221 221 219 216 216 215 217 223 228 232 235 238 238 238 239 238 238 239 235 230 229 231 237 239 240 241 239 235 235 236 237 239 240 237 228 220 215 218 218 224 239 246 267 265 261 262 267 270 273 276 280 287 290 291 283 268 273 284 291 297
226 226 227 226 224 222 216 216 219 221 223 226 227 228 231 236 240 238 236 235 233 231 232 233 232 231 232 231 228 227 225 223 221 221 223 225 228 229 230 233 234 234 238 239 241 240 233 227 226 228 238 246 247 245 242 238 234 232 234 237 235 231 228 224 223 231 226 218 230 237 249 260 260 263 268 271 275 278 281 283 282 281 278 278 287 289 289 296
226 225 224 222 221 218 215 216 219 222 225 227 227 228 229 233 237 238 237 235 233 233 233 234 234 233 235 235 234 233 231 230 229 230 230 231 232 232 232 236 236 233 234 236 238 237 229 224 224 223 230 239 241 243 240 235 231 230 232 234 234 232 229 227 228 235 242 235 234 234 239 256 262 267 270 273 276 278 279 281 280 279 281 285 288 287 291 301
226 226 223 219 215 213 216 221 223 225 228 228 227 228 229 231 233 235 238 238 234 233 234 235 235 235 235 234 235 237 236 235 236 237 236 237 238 238 237 238 239 239 236 233 235 237 232 227 223 218 217 224 226 224 230 233 232 231 232 233 235 235 231 230 232 231 239 243 242 240 242 254 260 265 268 270 275 278 280 282 281 281 284 286 288 292 300 304
226 226 224 218 213 211 215 222 224 226 228 228 228 230 230 231 233 233 235 235 235 235 235 235 235 234 233 230 231 234 235 235 236 238 239 239 239 240 239 240 241 242 240 239 240 242 240 236 230 226 227 231 235 240 264 252 240 236 240 240 239 239 237 235 232 229 237 245 247 246 248 255 260 262 264 268 273 277 281 282 282 284 285 285 287 295 300 294
225 226 225 218 211 210 214 219 221 225 228 227 229 232 232 231 231 233 234 233 234 236 236 236 234 231 229 227 226 228 232 233 234 236 239 240 241 242 242 242 241 242 245 246 246 247 247 245 242 240 241 241 243 247 258 269 257 249 253 251 246 245 242 235 232 237 242 242 248 253 252 254 261 265 266 268 272 276 280 282 284 286 285 284 285 287 282 274
223 226 226 220 213 213 218 223 225 226 225 224 227 233 235 232 230 231 233 234 234 235 236 235 234 233 231 228 227 227 226 228 231 234 238 239 240 243 245 244 241 242 245 247 248 249 249 249 248 247 249 250 250 252 252 253 256 255 254 256 256 253 248 241 239 245 245 240 245 255 256 257 262 267 268 268 273 277 278 281 283 282 281 283 286 284 276 268
223 223 224 221 219 220 225 229 230 227 223 220 222 228 232 234 233 233 233 232 230 230 232 234 235 236 234 230 230 231 227 225 228 232 236 238 238 241 247 247 244 243 245 246 250 251 249 252 254 252 252 253 252 253 253 253 254 255 253 252 252 253 255 253 251 252 251 248 252 258 261 262 262 263 266 268 272 274 275 277 278 278 281 286 289 286 282 278
224 224 223 222 221 221 223 224 224 225 223 220 222 228 231 233 234 234 232 230 228 228 228 232 236 237 236 234 233 234 233 232 234 237 240 242 242 244 248 250 249 247 245 246 248 247 245 250 255 252 250 254 253 253 254 254 255 257 256 253 250 250 254 256 256 256 253 254 257 259 262 264 262 261 266 270 271 272 274 276 278 281 284 288 289 289 289 288
225 225 224 222 222 222 221 221 221 223 222 220 223 229 231 233 234 232 232 233 234 232 231 234 237 236 238 239 238 238 238 238 239 241 242 244 244 245 246 248 249 248 246 246 245 243 242 247 251 244 237 249 255 254 255 256 256 254 253 252 251 250 251 252 255 257 255 255 257 255 255 260 263 266 271 273 274 276 277 278 280 283 286 289 290 291 292 289
223 225 224 222 222 223 222 222 220 219 221 224 229 233 233 235 235 230 226 230 235 235 234 237 239 236 236 238 239 240 240 239 240 240 240 241 242 244 244 244 244 244 245 247 246 246 247 249 252 247 237 249 258 258 257 257 253 246 247 251 252 253 253 254 256 259 259 257 254 253 256 263 271 275 276 276 277 279 280 281 283 286 288 290 290 290 290 288
Height
3105 3107 3109 3111 3112 3113 3115 3116 3118 3119 3121 3123 3124 3126 3127 3129 3131 3132 3134 3135 3136 3138 3139 3140 3142 3143 3144 3145 3147 3148 3149 3150 3151 3152 3153 3154 3155 3156 3157 3158 3159 3160 3161 3162 3163 3164 3164 3165 3166 3167 3169 3170 3171 3172 3174 3175 3176 3178 3179 3181 3182 3182 3182 3181 3182 3182 3181 3181 3181 3181 3181 3181 3181 3182 3182 3183 3183 3183 3184 3184 3184 3185 3185 3185 3185 3185 3186 3186
3104 3106 3108 3110 3111 3113 3114 3116 3117 3119 3121 3122 3124 3125 3127 3128 3130 3131 3133 3134 3136 3137 3139 3140 3141 3143 3144 3145 3147 3148 3149 3150 3151 3151 3152 3153 3154 3156 3157 3158 3159 3160 3160 3161 3162 3163 3164 3165 3166 3167 3168 3169 3171 3172 3173 3174 3176 3177 3179 3180 3181 3181 3181 3180 3181 3180 3180 3181 3180 3180 3180 3181 3181 3181 3182 3182 3183 3183 3183 3183 3184 3184 3184 3184 3184 3184 3185 3185
3102 3105 3107 3108 3110 3112 3114 3115 3117 3118 3120 3121 3123 3124 3126 3127 3129 3130 3132 3133 3135 3136 3138 3139 3141 3142 3144 3145 3146 3148 3149 3149 3150 3151 3152 3153 3154 3155 3156 3157 3158 3159 3160 3161 3162 3163 3163 3164 3166 3167 3168 3169 3170 3171 3172 3174 3175 3176 3178 3180 3180 3179 3179 3179 3179 3179 3179 3180 3180 3180 3180 3180 3180 3181 3181 3182 3182 3182 3182 3183 3183 3183 3183 3184 3184 3184 3184 3184
3101 3103 3105 3107 3109 3111 3112 3114 3116 3117 3119 3120 3122 3123 3124 3126 3127 3129 3131 3132 3134 3136 3137 3139 3140 3142 3143 3145 3146 3147 3148 3149 3150 3150 3152 3153 3154 3155 3156 3157 3158 3159 3159 3160 3161 3162 3163 3164 3165 3166 3168 3168 3169 3171 3172 3173 3174 3175 3177 3178 3178 3177 3178 3178 3178 3178 3179 3179 3179 3180 3179 3180 3180 3180 3181 3181 3181 3182 3182 3182 3182 3183 3183 3182 3182 3183 3183 3183
3099 3102 3104 3105 3107 3109 3111 3112 3114 3116 3117 3119 3120 3122 3123 3125 3126 3128 3130 3132 3133 3135 3136 3138 3139 3141 3143 3144 3146 3147 3148 3149 3149 3150 3151 3152 3153 3154 3155 3156 3157 3158 3159 3160 3161 3162 3163 3164 3165 3166 3167 3168 3169 3170 3171 3172 3173 3174 3175 3176 3176 3176 3177 3177 3177 3178 3178 3178 3179 3179 3179 3179 3179 3179 3180 3180 3180 3181 3182 3181 3181 3182 3182 3181 3182 3182 3183 3183
3098 3100 3102 3104 3106 3107 3109 3111 3112 3114 3116 3117 3119 3120 3121 3123 3125 3127 3129 3130 3132 3134 3136 3137 3139 3140 3142 3144 3145 3146 3148 3148 3149 3150 3151 3152 3153 3154 3155 3155 3156 3157 3158 3159 3160 3161 3162 3163 3165 3166 3167 3167 3168 3169 3170 3171 3173 3174 3174 3174 3175 3176 3176 3176 3177 3177 3177 3177 3178 3178 3178 3178 3178 3179 3179 3179 3179 3180 3180 3179 3180 3180 3180 3180 3181 3181 3182 3182
3096 3098 3100 3102 3104 3106 3107 3109 3111 3112 3114 3116 3117 3119 3120 3122 3124 3125 3127 3129 3131 3133 3135 3136 3138 3140 3141 3143 3144 3146 3147 3147 3148 3149 3150 3151 3152 3153 3154 3155 3155 3156 3157 3158 3160 3161 3162 3163 3164 3165 3166 3167 3167 3168 3169 3171 3172 3173 3173 3173 3174 3174 3175 3175 3175 3176 3176 3176 3176 3177 3177 3177 3177 3177 3177 3178 3179 3178 3178 3178 3179 3179 3179 3180 3180 3180 3181 3181
3095 3097 3098 3101 3102 3104 3106 3108 3110 3111 3113 3114 3116 3118 3119 3121 3123 3124 3126 3128 3130 3132 3134 3135 3137 3139 3141 3142 3144 3145 3146 3146 3147 3148 3149 3150 3151 3152 3153 3154 3155 3155 3156 3158 3159 3160 3161 3162 3163 3164 3165 3166 3166 3167 3169 3170 3172 3172 3172 3172 3173 3173 3174 3174 3174 3175 3175 3175 3176 3176 3176 3176 3176 3176 3176 3177 3177 3177 3176 3177 3177 3178 3178 3178 3179 3179 3180 3180
3093 3095 3097 3099 3101 3103 3105 3107 3109 3110 3112 3113 3115 3116 3118 3120 3122 3123 3125 3127 3129 3131 3132 3134 3136 3138 3140 3142 3143 3144 3145 3146 3147 3147 3148 3149 3150 3151 3152 3153 3154 3155 3156 3157 3158 3159 3160 3161 3162 3163 3164 3164 3166 3167 3168 3170 3171 3171 3171 3172 3172 3173 3173 3173 3173 3173 3174 3174 3175 3175 3175 3175 3175 3175 3175 3176 3175 3175 3176 3176 3176 3177 3177 3177 3178 3178 3178 3179
3092 3094 3096 3098 3100 3102 3103 3105 3107 3109 3111 3112 3114 3115 3117 3119 3120 3122 3124 3126 3128 3129 3131 3133 3135 3137 3139 3141 3142 3144 3144 3145 3146 3146 3147 3148 3149 3150 3151 3152 3153 3154 3155 3156 3157 3158 3159 3160 3161 3162 3163 3164 3165 3166 3167 3169 3169 3170 3171 3171 3172 3172 3172 3172 3172 3173 3173 3173 3174 3174 3174 3174 3174 3173 3174 3175 3174 3174 3175 3175 3176 3176 3176 3176 3176 3177 3177 3177
3091 3093 3095 3097 3099 3100 3102 3104 3106 3108 3110 3111 3113 3115 3116 3118 3119 3121 3123 3125 3127 3128 3130 3132 3134 3136 3138 3139 3141 3142 3142 3144 3145 3146 3147 3147 3148 3149 3150 3151 3152 3153 3154 3155 3156 3157 3158 3159 3160 3161 3163 3163 3164 3166 3167 3168 3168 3169 3170 3171 3171 3171 3171 3171 3171 3172 3172 3172 3173 3173 3173 3173 3172 3172 3173 3173 3173 3173 3174 3174 3174 3175 3175 3175 3175 3175 3175 3176
3090 3091 3093 3095 3097 3099 3101 3103 3104 3106 3108 3110 3112 3114 3115 3117 3118 3120 3122 3124 3126 3127 3129 3131 3133 3135 3137 3138 3140 3140 3141 3143 3144 3145 3146 3147 3147 3148 3149 3150 3151 3152 3153 3154 3155 3156 3157 3158 3159 3160 3161 3163 3164 3165 3166 3167 3168 3169 3170 3170 3170 3170 3170 3170 3170 3171 3171 3172 3172 3172 3172 3171 3171 3171 3171 3171 3171 3172 3172 3173 3173 3173 3174 3174 3173 3174 3174 3174
3089 3091 3092 3094 3096 3098 3100 3101 3103 3105 3107 3109 3110 3112 3114 3116 3117 3119 3121 3122 3124 3126 3128 3130 3132 3134 3136 3137 3137 3138 3140 3141 3142 3144 3145 3146 3147 3147 3148 3149 3150 3151 3152 3153 3154 3155 3156 3157 3159 3160 3161 3162 3163 3165 3165 3166 3168 3168 3169 3170 3170 3170 3169 3169 3170 3170 3171 3171 3171 3172 3171 3171 3171 3170 3170 3170 3170 3171 3171 3172 3172 3172 3172 3172 3172 3172 3172 3172
3088 3090 3091 3093 3095 3097 3099 3100 3102 3104 3105 3107 3109 3111 3113 3114 3116 3118 3120 3121 3123 3125 3127 3129 3131 3133 3134 3134 3135 3137 3138 3140 3141 3142 3144 3145 3146 3147 3148 3148 3150 3151 3152 3153 3154 3155 3156 3157 3158 3159 3160 3161 3163 3164 3165 3166 3167 3168 3168 3169 3169 3170 3169 3168 3169 3169 3170 3170 3170 3171 3170 3170 3170 3169 3168 3169 3169 3169 3170 3170 3170 3170 3170 3170 3170 3170 3170 3170
3087 3089 3090 3092 3094 3096 3097 3099 3101 3102 3104 3106 3107 3109 3111 3113 3115 3117 3119 3120 3122 3124 3126 3128 3129 3131 3132 3132 3134 3135 3137 3138 3139 3141 3142 3144 3145 3146 3147 3148 3149 3150 3151 3152 3153 3154 3155 3156 3157 3158 3159 3161 3162 3164 3165 3166 3166 3167 3168 3168 3168 3169 3168 3167 3168 3168 3168 3169 3169 3169 3168 3168 3169 3168 3167 3168 3168 3168 3168 3168 3168 3168 3168 3168 3168 3168 3168 3168
3085 3087 3089 3091 3093 3094 3096 3098 3099 3101 3103 3104 3106 3108 3109 3111 3113 3115 3117 3119 3121 3123 3124 3126 3128 3130 3131 3131 3132 3134 3135 3137 3138 3140 3141 3142 3144 3145 3146 3147 3148 3150 3151 3151 3152 3153 3154 3155 3157 3158 3159 3160 3162 3164 3165 3166 3166 3166 3167 3168 3167 3167 3168 3166 3166 3167 3167 3167 3167 3167 3166 3166 3167 3166 3166 3167 3166 3166 3166 3166 3167 3166 3166 3166 3166 3166 3166 3167
3083 3085 3087 3089 3091 3093 3095 3096 3098 3100 3101 3103 3105 3106 3108 3110 3112 3114 3116 3118 3120 3121 3123 3125 3127 3129 3129 3129 3130 3132 3134 3135 3137 3139 3140 3141 3143 3144 3145 3147 3148 3149 3150 3151 3152 3153 3154 3155 3156 3158 3159 3160 3162 3163 3165 3165 3165 3165 3165 3166 3166 3166 3167 3166 3165 3165 3165 3165 3165 3165 3163 3164 3165 3165 3165 3165 3164 3164 3164 3164 3164 3164 3164 3164 3164 3164 3164 3164
3082 3083 3085 3087 3089 3091 3093 3094 3096 3098 3100 3102 3103 3105 3107 3108 3110 3112 3114 3116 3118 3120 3122 3124 3125 3128 3127 3126 3128 3131 3133 3135 3136 3138 3139 3140 3142 3143 3145 3146 3147 3148 3149 3150 3151 3152 3153 3154 3156 3157 3158 3159 3160 3161 3163 3163 3164 3164 3164 3164 3165 3164 3165 3165 3164 3163 3164 3163 3163 3163 3161 3161 3163 3163 3163 3163 3162 3161 3161 3162 3162 3162 3162 3162 3162 3162 3162 3162
3080 3082 3083 3085 3087 3089 3091 3092 3094 3096 3098 3100 3101 3103 3105 3107 3109 3111 3113 3114 3116 3118 3120 3120 3122 3125 3125 3125 3128 3130 3132 3134 3135 3136 3138 3139 3141 3142 3144 3145 3146 3147 3149 3149 3150 3151 3152 3153 3155 3155 3156 3157 3158 3160 3161 3162 3162 3163 3163 3163 3164 3164 3164 3163 3162 3162 3162 3162 3161 3161 3159 3159 3161 3161 3161 3162 3161 3159 3159 3160 3160 3160 3160 3160 3160 3160 3160 3159
3078 3080 3082 3083 3085 3087 3089 3091 3092 3094 3096 3098 3100 3102 3104 3105 3107 3109 3110 3112 3114 3115 3116 3118 3120 3122 3123 3125 3128 3129 3131 3132 3133 3135 3136 3138 3140 3141 3143 3144 3145 3146 3147 3148 3149 3150 3152 3152 3153 3154 3156 3157 3158 3159 3160 3160 3160 3161 3161 3162 3162 3163 3163 3161 3161 3161 3161 3160 3159 3159 3158 3157 3157 3159 3159 3160 3159 3157 3157 3157 3158 3158 3158 3158 3158 3157 3157 3157
3077 3078 3080 3082 3084 3085 3087 3089 3091 3093 3094 3096 3099 3100 3102 3104 3106 3107 3109 3111 3113 3114 3116 3117 3120 3121 3122 3125 3126 3127 3129 3130 3131 3133 3135 3137 3138 3140 3141 3143 3144 3145 3146 3147 3148 3149 3150 3151 3152 3154 3155 3156 3157 3157 3158 3158 3159 3159 3160 3161 3161 3162 3161 3160 3159 3159 3159 3158 3157 3157 3156 3154 3155 3156 3156 3157 3156 3155 3155 3156 3155 3156 3156 3156 3155 3155 3155 3155
3075 3077 3079 3080 3082 3084 3086 3087 3089 3091 3093 3095 3097 3099 3101 3103 3105 3107 3109 3111 3112 3114 3115 3116 3118 3119 3121 3123 3125 3126 3128 3128 3130 3131 3133 3135 3137 3138 3139 3141 3143 3144 3144 3146 3147 3148 3149 3150 3152 3152 3152 3154 3155 3155 3156 3157 3157 3158 3159 3160 3160 3160 3160 3159 3158 3158 3158 3157 3156 3155 3153 3151 3152 3153 3153 3154 3154 3153 3154 3154 3153 3153 3153 3153 3153 3153 3153 3153
3073 3075 3077 3079 3080 3082 3084 3086 3088 3090 3092 3094 3096 3098 3100 3102 3104 3106 3108 3109 3110 3112 3113 3114 3116 3117 3119 3121 3123 3125 3126 3127 3128 3129 3131 3133 3135 3136 3137 3139 3141 3142 3143 3144 3146 3147 3148 3149 3150 3150 3151 3153 3154 3154 3155 3156 3156 3157 3157 3158 3159 3159 3159 3158 3157 3156 3156 3155 3154 3153 3150 3148 3149 3149 3150 3151 3151 3151 3152 3151 3151 3151 3150 3151 3151 3151 3150 3150
3070 3073 3075 3077 3079 3081 3083 3085 3087 3089 3091 3093 3095 3097 3099 3101 3103 3105 3107 3108 3108 3109 3111 3112 3114 3115 3117 3119 3121 3122 3123 3125 3126 3127 3130 3131 3133 3134 3136 3138 3140 3140 3141 3143 3145 3146 3147 3147 3148 3149 3150 3151 3152 3153 3154 3155 3155 3155 3156 3157 3158 3158 3157 3156 3155 3154 3154 3154 3152 3152 3149 3145 3146 3146 3146 3147 3148 3148 3149 3149 3149 3149 3149 3149 3148 3148 3148 3148
3068 3071 3073 3076 3078 3079 3082 3084 3085 3088 3090 3092 3094 3096 3098 3100 3101 3103 3105 3107 3106 3106 3108 3110 3111 3113 3115 3117 3118 3119 3121 3122 3124 3126 3128 3129 3130 3132 3134 3136 3137 3138 3140 3142 3143 3145 3145 3145 3146 3148 3148 3150 3151 3151 3152 3153 3154 3155 3154 3155 3156 3156 3155 3155 3155 3154 3153 3152 3151 3151 3149 3144 3143 3143 3142 3144 3144 3145 3146 3146 3146 3147 3147 3147 3146 3146 3146 3146
3065 3068 3070 3073 3076 3078 3080 3082 3084 3086 3088 3090 3092 3095 3097 3098 3100 3102 3104 3106 3104 3103 3105 3107 3108 3110 3111 3113 3114 3117 3119 3119 3121 3124 3125 3126 3128 3130 3131 3133 3135 3137 3138 3140 3141 3141 3141 3142 3145 3146 3147 3148 3149 3150 3151 3152 3153 3154 3153 3153 3155 3154 3154 3154 3154 3153 3153 3151 3149 3150 3150 3145 3140 3139 3139 3141 3141 3141 3143 3143 3143 3144 3145 3144 3144 3143 3144 3143
3062 3065 3067 3070 3073 3076 3078 3079 3082 3084 3086 3088 3090 3093 3095 3097 3099 3101 3103 3105 3101 3099 3102 3103 3104 3105 3106 3109 3112 3115 3116 3115 3118 3121 3122 3124 3126 3128 3130 3131 3133 3135 3136 3138 3139 3138 3138 3141 3143 3144 3145 3146 3147 3148 3149 3150 3152 3152 3151 3152 3153 3152 3153 3153 3153 3153 3152 3150 3148 3147 3149 3146 3138 3135 3137 3138 3137 3138 3140 3140 3140 3142 3142 3141 3141 3141 3141 3141
3060 3062 3064 3068 3071 3073 3074 3077 3080 3081 3083 3086 3088 3091 3093 3095 3098 3099 3102 3102 3096 3094 3097 3099 3101 3102 3103 3107 3110 3112 3111 3112 3116 3117 3119 3123 3124 3126 3129 3129 3131 3133 3135 3137 3137 3135 3136 3139 3141 3142 3143 3144 3144 3146 3148 3149 3150 3149 3149 3151 3151 3151 3151 3151 3152 3151 3150 3149 3146 3143 3146 3144 3133 3130 3135 3134 3133 3135 3136 3138 3138 3138 3138 3138 3138 3138 3139 3139
3057 3059 3062 3065 3068 3069 3072 3074 3076 3079 3081 3084 3086 3088 3090 3093 3095 3097 3100 3099 3092 3090 3092 3094 3097 3098 3100 3104 3106 3108 3109 3110 3113 3115 3118 3121 3121 3124 3126 3127 3130 3131 3132 3135 3135 3134 3134 3137 3139 3140 3141 3141 3142 3144 3147 3148 3147 3147 3148 3149 3149 3150 3150 3151 3151 3150 3151 3148 3142 3140 3145 3142 3128 3124 3130 3130 3129 3132 3134 3135 3135 3134 3134 3134 3135 3136 3136 3137
3054 3056 3059 3062 3064 3066 3069 3072 3074 3077 3079 3081 3083 3086 3088 3090 3092 3094 3097 3093 3087 3087 3089 3090 3092 3093 3096 3100 3103 3105 3106 3108 3111 3114 3116 3117 3119 3122 3124 3125 3128 3128 3130 3132 3132 3131 3132 3135 3137 3137 3138 3138 3140 3143 3144 3146 3146 3146 3147 3148 3149 3149 3149 3150 3149 3149 3151 3144 3139 3138 3142 3143 3130 3119 3123 3126 3126 3129 3132 3133 3132 3132 3132 3132 3133 3134 3134 3135
3052 3054 3056 3059 3061 3063 3066 3069 3072 3074 3077 3079 3081 3083 3085 3086 3088 3089 3088 3086 3084 3084 3086 3087 3089 3090 3093 3096 3099 3101 3103 3105 3109 3112 3113 3115 3117 3119 3121 3123 3125 3126 3128 3128 3128 3128 3130 3133 3133 3134 3136 3137 3138 3140 3141 3143 3143 3144 3146 3147 3148 3149 3148 3149 3148 3149 3148 3140 3137 3137 3139 3143 3131 3117 3119 3122 3124 3128 3130 3131 3131 3130 3130 3130 3131 3132 3132 3132
3049 3051 3053 3056 3058 3061 3063 3066 3069 3072 3074 3076 3078 3080 3081 3083 3084 3082 3080 3081 3083 3081 3081 3084 3086 3088 3092 3095 3097 3099 3101 3103 3106 3109 3111 3113 3115 3116 3117 3119 3121 3124 3125 3125 3126 3126 3127 3129 3131 3132 3133 3134 3136 3137 3138 3139 3140 3142 3144 3147 3149 3148 3147 3147 3144 3144 3142 3137 3136 3136 3139 3137 3122 3113 3118 3120 3121 3125 3127 3128 3128 3128 3128 3127 3128 3129 3129 3129
3046 3049 3051 3053 3055 3057 3060 3063 3066 3069 3071 3072 3073 3075 3077 3078 3076 3075 3075 3078 3079 3077 3078 3082 3084 3087 3091 3093 3094 3096 3099 3101 3103 3106 3108 3110 3112 3113 3115 3117 3118 3120 3122 3122 3123 3124 3125 3126 3127 3128 3129 3130 3132 3133 3134 3136 3137 3139 3141 3144 3145 3145 3145 3142 3139 3138 3137 3135 3133 3135 3138 3130 3114 3111 3115 3115 3118 3120 3121 3124 3125 3125 3125 3125 3125 3126 3127 3127
3043 3046 3048 3050 3052 3054 3057 3060 3063 3065 3067 3069 3069 3070 3072 3073 3070 3071 3074 3075 3076 3076 3077 3080 3082 3086 3089 3090 3092 3093 3097 3098 3100 3104 3105 3106 3109 3109 3111 3113 3115 3117 3120 3121 3121 3121 3122 3121 3120 3123 3124 3126 3129 3131 3133 3134 3136 3137 3138 3140 3140 3139 3139 3137 3135 3135 3134 3133 3132 3134 3133 3122 3111 3110 3110 3112 3115 3116 3118 3120 3121 3122 3124 3125 3125 3125 3125 3124
3040 3042 3044 3047 3049 3052 3054 3056 3058 3061 3063 3065 3065 3064 3064 3065 3065 3068 3071 3072 3074 3075 3076 3079 3081 3084 3086 3088 3089 3091 3094 3095 3097 3100 3101 3102 3104 3104 3106 3108 3111 3114 3117 3118 3117 3118 3118 3116 3116 3119 3121 3124 3126 3129 3132 3133 3133 3134 3136 3137 3135 3134 3135 3134 3133 3132 3133 3132 3129 3128 3123 3112 3108 3109 3108 3111 3113 3113 3116 3117 3118 3120 3121 3123 3123 3122 3123 3122
3037 3039 3041 3043 3046 3049 3051 3053 3055 3057 3058 3060 3060 3058 3058 3059 3060 3063 3067 3070 3071 3073 3076 3078 3080 3082 3084 3085 3086 3088 3091 3092 3094 3096 3098 3099 3100 3101 3103 3104 3106 3109 3111 3112 3113 3114 3115 3114 3113 3116 3119 3120 3123 3126 3128 3128 3129 3130 3131 3130 3129 3130 3133 3134 3132 3131 3134 3132 3124 3121 3115 3107 3108 3106 3103 3108 3110 3110 3113 3113 3115 3117 3117 3119 3120 3120 3121 3120
3033 3035 3037 3039 3042 3046 3048 3050 3052 3053 3054 3054 3054 3053 3054 3056 3058 3061 3065 3067 3069 3071 3074 3076 3077 3079 3081 3081 3082 3085 3088 3089 3091 3093 3095 3097 3096 3097 3099 3100 3102 3104 3106 3109 3111 3111 3112 3111 3110 3112 3115 3116 3119 3122 3123 3124 3125 3126 3125 3125 3126 3129 3130 3132 3132 3130 3131 3128 3119 3117 3113 3109 3109 3104 3098 3103 3106 3106 3109 3110 3111 3113 3113 3115 3116 3117 3118 3116
3030 3032 3034 3036 3039 3042 3045 3047 3049 3049 3049 3050 3050 3051 3052 3054 3056 3060 3063 3066 3068 3069 3071 3073 3075 3076 3078 3079 3080 3082 3085 3086 3088 3090 3092 3093 3092 3092 3095 3097 3098 3100 3103 3107 3109 3108 3109 3109 3108 3108 3110 3112 3116 3118 3118 3119 3121 3120 3120 3121 3124 3126 3126 3128 3130 3127 3126 3124 3117 3113 3111 3108 3106 3099 3096 3102 3104 3104 3106 3107 3108 3109 3110 3111 3112 3113 3114 3113
3026 3028 3030 3032 3036 3039 3042 3044 3045 3046 3046 3046 3046 3048 3049 3051 3053 3056 3059 3063 3065 3065 3067 3070 3072 3073 3075 3077 3078 3078 3081 3083 3084 3086 3088 3089 3089 3089 3091 3093 3095 3097 3100 3103 3104 3104 3106 3107 3106 3105 3107 3110 3111 3112 3112 3112 3114 3116 3117 3119 3121 3122 3122 3123 3123 3121 3121 3119 3115 3111 3107 3102 3098 3095 3097 3101 3101 3102 3103 3104 3105 3106 3108 3109 3110 3110 3110 3110
3023 3024 3026 3029 3032 3035 3038 3040 3041 3042 3041 3041 3043 3045 3046 3047 3049 3052 3056 3059 3061 3061 3064 3067 3069 3070 3072 3074 3075 3075 3078 3080 3081 3082 3084 3085 3086 3086 3088 3090 3092 3094 3096 3099 3100 3102 3103 3104 3103 3102 3104 3105 3104 3104 3105 3106 3109 3112 3114 3116 3116 3117 3119 3119 3117 3116 3117 3115 3112 3110 3103 3095 3093 3095 3096 3098 3099 3100 3100 3101 3103 3104 3105 3107 3108 3107 3107 3107
3019 3020 3021 3025 3028 3031 3034 3036 3036 3037 3037 3037 3040 3042 3044 3044 3046 3050 3053 3056 3058 3059 3061 3063 3065 3067 3068 3070 3072 3072 3075 3077 3077 3079 3080 3081 3083 3084 3085 3087 3088 3090 3093 3094 3096 3097 3099 3100 3100 3100 3099 3099 3099 3100 3103 3105 3106 3108 3110 3110 3110 3111 3114 3115 3113 3111 3112 3111 3109 3109 3102 3090 3089 3093 3093 3094 3097 3096 3096 3098 3099 3100 3103 3104 3104 3104 3104 3103
3015 3016 3018 3022 3024 3027 3030 3031 3031 3033 3033 3033 3036 3040 3041 3041 3043 3047 3049 3052 3054 3056 3058 3060 3062 3063 3065 3067 3069 3070 3071 3073 3073 3074 3076 3077 3079 3081 3082 3083 3085 3088 3089 3090 3091 3093 3095 3096 3097 3096 3094 3095 3096 3098 3101 3102 3103 3105 3105 3105 3106 3107 3107 3108 3107 3106 3108 3108 3107 3108 3102 3088 3084 3089 3090 3091 3093 3093 3094 3096 3096 3098 3100 3100 3100 3100 3100 3099
3011 3012 3015 3018 3020 3023 3026 3027 3028 3029 3029 3031 3034 3037 3038 3039 3040 3043 3046 3048 3051 3053 3054 3055 3058 3060 3062 3063 3065 3067 3068 3070 3070 3071 3073 3074 3075 3078 3079 3080 3083 3085 3086 3087 3088 3090 3092 3092 3092 3093 3093 3093 3094 3095 3097 3099 3100 3100 3099 3101 3102 3102 3102 3104 3105 3105 3105 3104 3104 3105 3100 3086 3081 3086 3088 3088 3089 3091 3092 3093 3094 3095 3096 3096 3097 3097 3096 3096
3007 3009 3011 3013 3016 3020 3021 3021 3023 3024 3025 3028 3031 3033 3035 3036 3037 3039 3041 3044 3047 3049 3050 3051 3054 3056 3059 3061 3062 3063 3066 3067 3068 3069 3071 3072 3073 3075 3077 3078 3081 3083 3083 3084 3085 3086 3087 3087 3088 3090 3091 3091 3090 3091 3092 3093 3094 3093 3094 3097 3097 3098 3101 3102 3102 3104 3101 3100 3101 3098 3092 3085 3081 3084 3085 3085 3086 3087 3089 3090 3091 3092 3092 3093 3093 3093 3093 3092
3002 3004 3006 3009 3012 3014 3015 3017 3019 3020 3022 3025 3027 3029 3031 3033 3034 3036 3038 3040 3043 3045 3046 3048 3051 3053 3056 3058 3059 3060 3062 3063 3065 3066 3068 3069 3070 3072 3074 3075 3077 3079 3081 3082 3083 3083 3083 3083 3084 3085 3085 3084 3084 3084 3084 3084 3088 3089 3090 3092 3093 3095 3098 3098 3099 3101 3097 3095 3095 3090 3086 3084 3081 3081 3082 3081 3082 3084 3085 3086 3087 3088 3089 3090 3090 3090 3090 3089
2998 2999 3002 3005 3007 3009 3011 3013 3015 3017 3019 3021 3023 3024 3027 3028 3030 3032 3034 3037 3039 3041 3043 3045 3048 3050 3052 3054 3055 3056 3057 3059 3061 3062 3063 3065 3066 3068 3069 3071 3073 3075 3077 3079 3080 3081 3081 3080 3081 3081 3079 3078 3079 3080 3081 3081 3084 3085 3086 3087 3089 3091 3093 3095 3096 3094 3092 3092 3087 3083 3085 3083 3077 3078 3080 3080 3081 3081 3082 3083 3083 3084 3085 3086 3087 3088 3088 3088
2993 2995 2997 3001 3003 3005 3006 3008 3010 3012 3014 3017 3018 3019 3021 3024 3026 3028 3031 3033 3035 3037 3039 3041 3044 3046 3047 3049 3051 3052 3054 3056 3057 3058 3059 3060 3062 3064 3065 3067 3070 3071 3073 3075 3075 3076 3077 3076 3077 3077 3076 3075 3077 3079 3080 3081 3082 3082 3083 3084 3086 3087 3089 3090 3089 3086 3090 3089 3080 3078 3084 3080 3074 3075 3077 3078 3080 3080 3079 3080 3080 3080 3080 3081 3083 3085 3086 3086
2989 2991 2994 2997 2998 2999 3000 3002 3005 3008 3010 3013 3014 3016 3017 3020 3023 3024 3026 3029 3032 3034 3035 3036 3038 3040 3043 3046 3047 3049 3051 3052 3053 3054 3055 3057 3059 3060 3061 3064 3066 3067 3069 3070 3071 3072 3072 3071 3072 3074 3073 3073 3074 3075 3078 3079 3079 3080 3081 3081 3082 3083 3084 3084 3083 3082 3084 3081 3074 3076 3079 3076 3074 3073 3071 3074 3078 3077 3077 3077 3076 3076 3075 3076 3078 3080 3081 3082
2985 2987 2989 2992 2993 2995 2997 3000 3002 3004 3006 3009 3010 3011 3013 3015 3018 3020 3022 3025 3027 3029 3031 3032 3034 3036 3039 3042 3044 3045 3046 3048 3049 3050 3052 3054 3056 3056 3057 3059 3062 3064 3066 3066 3067 3068 3068 3067 3068 3069 3069 3069 3070 3071 3073 3075 3074 3074 3076 3078 3079 3080 3079 3079 3078 3077 3077 3074 3074 3077 3074 3070 3069 3068 3067 3072 3074 3073 3073 3073 3072 3071 3071 3072 3073 3073 3074 3075
2981 2983 2985 2987 2989 2991 2994 2996 2998 2999 3002 3004 3006 3007 3009 3011 3013 3016 3018 3020 3021 3024 3026 3028 3030 3033 3035 3038 3040 3040 3042 3045 3046 3048 3050 3051 3052 3053 3054 3055 3057 3060 3062 3063 3063 3064 3064 3063 3064 3066 3066 3064 3064 3066 3067 3068 3069 3068 3070 3073 3076 3076 3074 3072 3070 3071 3072 3072 3072 3074 3070 3063 3061 3064 3067 3069 3069 3069 3069 3068 3068 3067 3068 3068 3068 3067 3068 3069
2977 2979 2981 2983 2984 2987 2989 2991 2993 2995 2997 2999 3000 3003 3005 3006 3009 3013 3015 3016 3018 3020 3022 3024 3027 3031 3032 3033 3035 3036 3039 3042 3044 3045 3047 3047 3048 3049 3050 3051 3053 3055 3057 3058 3059 3060 3060 3060 3061 3064 3063 3059 3059 3061 3062 3063 3065 3065 3065 3067 3068 3067 3065 3064 3064 3066 3068 3068 3067 3068 3065 3057 3055 3062 3066 3064 3064 3065 3064 3064 3064 3063 3064 3064 3062 3061 3062 3062
2972 2973 2976 2979 2980 2983 2985 2987 2989 2990 2991 2993 2996 2998 3000 3002 3006 3010 3012 3013 3015 3017 3019 3021 3024 3027 3028 3029 3030 3033 3036 3038 3039 3040 3041 3042 3044 3045 3046 3047 3049 3051 3053 3054 3055 3056 3057 3057 3058 3060 3059 3056 3055 3056 3059 3061 3060 3057 3057 3058 3058 3057 3058 3060 3061 3061 3060 3061 3061 3059 3057 3055 3056 3060 3060 3058 3059 3060 3059 3059 3060 3058 3058 3059 3057 3056 3056 3056